TimeAKST,TemperatureF,Dew PointF,Humidity,Sea Level PressureIn,VisibilityMPH,Wind Direction,Wind SpeedMPH,Gust SpeedMPH,PrecipitationIn,Events,Conditions,WindDirDegrees,DateUTC
12:16 AM,44.6,37.4,76,29.76,10.0,ESE,16.1,26.5,N/A,,Overcast,120,2012-11-04 08:16:00
12:36 AM,44.6,37.4,76,29.76,10.0,ESE,15.0,23.0,N/A,,Overcast,120,2012-11-04 08:36:00
12:56 AM,44.6,37.4,76,29.76,10.0,ESE,16.1,23.0,N/A,,Overcast,110,2012-11-04 08:56:00
1:16 AM,44.6,37.4,76,29.76,10.0,ESE,12.7,-,N/A,,Mostly Cloudy,110,2012-11-04 09:16:00
1:36 AM,46.4,37.4,71,29.77,10.0,East,11.5,-,N/A,,Overcast,100,2012-11-04 09:36:00
1:56 AM,44.6,37.4,76,29.75,10.0,ESE,13.8,17.3,N/A,,Mostly Cloudy,120,2012-11-04 09:56:00
1:16 AM,46.4,35.6,66,29.75,10.0,SE,16.1,-,N/A,,Mostly Cloudy,140,2012-11-04 10:16:00
1:36 AM,46.4,35.6,66,29.74,10.0,SSE,11.5,20.7,N/A,,Mostly Cloudy,150,2012-11-04 10:36:00
1:56 AM,46.4,35.6,66,29.72,10.0,ESE,11.5,-,N/A,,Mostly Cloudy,110,2012-11-04 10:56:00
2:16 AM,44.6,37.4,76,29.70,10.0,ESE,11.5,-,N/A,,Mostly Cloudy,110,2012-11-04 11:16:00
2:36 AM,44.6,37.4,76,29.70,10.0,ESE,11.5,17.3,N/A,,Overcast,120,2012-11-04 11:36:00
2:56 AM,46.4,35.6,66,29.67,10.0,SE,17.3,25.3,N/A,,Overcast,140,2012-11-04 11:56:00
3:16 AM,46.4,35.6,66,29.67,10.0,SE,19.6,27.6,N/A,,Mostly Cloudy,130,2012-11-04 12:16:00
3:36 AM,44.6,35.6,71,29.66,10.0,SE,17.3,21.9,N/A,,Mostly Cloudy,130,2012-11-04 12:36:00
3:56 AM,44.6,35.6,71,29.64,10.0,SE,19.6,24.2,N/A,,Overcast,140,2012-11-04 12:56:00
4:16 AM,44.6,35.6,71,29.63,10.0,SE,18.4,26.5,N/A,,Mostly Cloudy,130,2012-11-04 13:16:00
4:36 AM,44.6,37.4,76,29.61,10.0,ESE,11.5,23.0,N/A,,Mostly Cloudy,110,2012-11-04 13:36:00
4:56 AM,44.6,37.4,76,29.58,10.0,ESE,13.8,-,N/A,,Mostly Cloudy,110,2012-11-04 13:56:00
5:16 AM,44.6,37.4,76,29.56,10.0,ESE,12.7,-,N/A,,Overcast,110,2012-11-04 14:16:00
5:36 AM,44.6,37.4,76,29.54,10.0,ESE,13.8,18.4,N/A,,Overcast,120,2012-11-04 14:36:00
5:56 AM,44.6,37.4,76,29.52,8.0,ESE,13.8,19.6,N/A,,Overcast,110,2012-11-04 14:56:00
6:16 AM,42.8,37.4,81,29.49,8.0,East,10.4,-,N/A,,Overcast,100,2012-11-04 15:16:00
6:36 AM,42.8,37.4,81,29.47,8.0,East,10.4,-,N/A,,Overcast,100,2012-11-04 15:36:00
6:56 AM,42.8,37.4,81,29.43,6.0,East,10.4,-,N/A,,Overcast,100,2012-11-04 15:56:00
7:16 AM,42.8,37.4,81,29.40,8.0,East,12.7,-,N/A,,Overcast,100,2012-11-04 16:16:00
7:36 AM,42.8,37.4,81,29.37,8.0,East,9.2,-,N/A,,Overcast,90,2012-11-04 16:36:00
7:56 AM,42.8,37.4,81,29.34,10.0,East,8.1,-,N/A,,Overcast,90,2012-11-04 16:56:00
8:16 AM,42.8,37.4,81,29.30,10.0,ENE,10.4,-,N/A,,Overcast,70,2012-11-04 17:16:00
8:36 AM,42.8,37.4,81,29.27,10.0,East,10.4,-,N/A,,Overcast,80,2012-11-04 17:36:00
8:56 AM,44.6,39.2,81,29.23,10.0,East,12.7,-,N/A,,Overcast,80,2012-11-04 17:56:00
9:16 AM,46.4,39.2,76,29.20,10.0,East,12.7,17.3,N/A,,Overcast,80,2012-11-04 18:16:00
9:36 AM,46.4,39.2,76,29.17,10.0,ENE,9.2,-,N/A,,Overcast,70,2012-11-04 18:36:00
9:56 AM,46.4,39.2,76,29.13,10.0,ESE,13.8,20.7,N/A,,Mostly Cloudy,120,2012-11-04 18:56:00
10:16 AM,48.2,41.0,76,29.10,10.0,ESE,16.1,-,N/A,,Mostly Cloudy,120,2012-11-04 19:16:00
10:36 AM,50.0,41.0,71,29.10,10.0,East,11.5,20.7,N/A,,Mostly Cloudy,90,2012-11-04 19:36:00
10:56 AM,46.4,41.0,81,29.07,10.0,East,15.0,18.4,N/A,,Overcast,90,2012-11-04 19:56:00
11:16 AM,46.4,41.0,81,29.04,10.0,East,10.4,-,N/A,,Overcast,100,2012-11-04 20:16:00
11:36 AM,46.4,42.8,87,29.03,10.0,East,11.5,-,N/A,,Overcast,90,2012-11-04 20:36:00
11:56 AM,46.4,42.8,87,29.02,5.0,East,10.4,-,N/A,,Overcast,100,2012-11-04 20:56:00
12:16 PM,50.0,42.8,76,29.03,3.0,SE,15.0,27.6,N/A,,Overcast,140,2012-11-04 21:16:00
12:36 PM,50.0,42.8,76,29.04,3.0,ESE,12.7,32.2,N/A,,Overcast,110,2012-11-04 21:36:00
12:56 PM,50.0,42.8,76,29.05,7.0,SSE,17.3,40.3,N/A,,Overcast,150,2012-11-04 21:56:00
1:16 PM,50.0,41.0,71,29.04,7.0,ESE,12.7,33.4,N/A,,Overcast,120,2012-11-04 22:16:00
1:36 PM,48.2,41.0,76,29.03,7.0,SE,19.6,32.2,N/A,,Overcast,130,2012-11-04 22:36:00
1:56 PM,48.2,41.0,76,29.01,7.0,SE,26.5,39.1,N/A,,Overcast,130,2012-11-04 22:56:00
2:16 PM,48.2,41.0,76,29.02,7.0,ESE,15.0,31.1,N/A,,Overcast,120,2012-11-04 23:16:00
2:36 PM,48.2,41.0,76,29.00,7.0,ESE,23.0,31.1,N/A,,Overcast,120,2012-11-04 23:36:00
2:56 PM,48.2,39.2,71,29.00,8.0,ESE,20.7,42.6,N/A,,Overcast,120,2012-11-04 23:56:00
3:16 PM,46.4,39.2,76,29.01,8.0,ESE,24.2,32.2,N/A,,Overcast,120,2012-11-05 00:16:00
3:36 PM,46.4,39.2,76,29.02,8.0,ESE,24.2,36.8,N/A,,Overcast,120,2012-11-05 00:36:00
3:56 PM,46.4,39.2,76,29.04,5.0,ESE,19.6,32.2,N/A,,Overcast,110,2012-11-05 00:56:00
4:16 PM,46.4,39.2,76,29.04,5.0,ESE,21.9,32.2,N/A,,Overcast,120,2012-11-05 01:16:00
4:36 PM,46.4,39.2,76,29.04,5.0,ESE,25.3,35.7,N/A,,Overcast,120,2012-11-05 01:36:00
4:56 PM,46.4,39.2,76,29.04,6.0,ESE,28.8,40.3,N/A,,Overcast,120,2012-11-05 01:56:00
5:16 PM,46.4,39.2,76,29.07,6.0,ESE,24.2,42.6,N/A,,Overcast,120,2012-11-05 02:16:00
5:36 PM,46.4,39.2,76,29.08,6.0,ESE,28.8,38.0,N/A,,Overcast,120,2012-11-05 02:36:00
5:56 PM,44.6,39.2,81,29.09,5.0,SE,27.6,43.7,N/A,,Overcast,130,2012-11-05 02:56:00
6:16 PM,46.4,39.2,76,29.09,5.0,SE,34.5,51.8,N/A,,Overcast,130,2012-11-05 03:16:00
6:36 PM,46.4,39.2,76,29.10,5.0,ESE,29.9,44.9,N/A,,Overcast,120,2012-11-05 03:36:00
6:56 PM,44.6,39.2,81,29.14,5.0,SE,25.3,50.6,N/A,,Overcast,130,2012-11-05 03:56:00
7:16 PM,46.4,39.2,76,29.16,5.0,SE,27.6,41.4,N/A,,Overcast,130,2012-11-05 04:16:00
7:36 PM,44.6,37.4,76,29.20,5.0,ESE,23.0,38.0,N/A,,Overcast,120,2012-11-05 04:36:00
7:56 PM,44.6,39.2,81,29.22,5.0,ESE,23.0,33.4,N/A,,Overcast,120,2012-11-05 04:56:00
8:16 PM,44.6,37.4,76,29.26,5.0,SSE,21.9,32.2,N/A,,Overcast,150,2012-11-05 05:16:00
8:36 PM,44.6,37.4,76,29.29,5.0,SE,19.6,28.8,N/A,,Overcast,130,2012-11-05 05:36:00
8:56 PM,44.6,37.4,76,29.33,5.0,SSE,17.3,33.4,N/A,,Overcast,150,2012-11-05 05:56:00
9:16 PM,44.6,37.4,76,29.37,5.0,SSE,11.5,29.9,N/A,,Overcast,160,2012-11-05 06:16:00
9:36 PM,44.6,37.4,76,29.41,5.0,SE,13.8,18.4,N/A,,Overcast,140,2012-11-05 06:36:00
9:56 PM,44.6,37.4,76,29.44,5.0,South,21.9,33.4,N/A,,Overcast,180,2012-11-05 06:56:00
10:16 PM,44.6,37.4,76,29.49,8.0,South,12.7,19.6,N/A,,Overcast,170,2012-11-05 07:16:00
10:36 PM,44.6,37.4,76,29.51,7.0,SSE,16.1,25.3,N/A,,Overcast,160,2012-11-05 07:36:00
10:56 PM,44.6,37.4,76,29.52,8.0,SSE,18.4,23.0,N/A,,Overcast,160,2012-11-05 07:56:00